• Em Portugal
  • Lista de países
  • Para 7 dias
  • Temperatura da água
  • Mapas de satélite
  • Mapa do tempo
  • Widgets de tempo
  • user-avatar
    Iniciar Sessão

    Previsão horária em Newcastle

    Hoje, 19 Junho, Terça-feira

    Tempo Temperatura Precipitação Vento Pressão Humidade
    00:00 +8°C° 0,1 mm 7 m/s 763 mmHg 78%
    01:00 +6°C° 0,1 mm 8 m/s 763 mmHg 78%
    02:00 +6°C° 0,3 mm 8 m/s 763 mmHg 77%
    03:00 +6°C° 0,3 mm 7 m/s 763 mmHg 77%
    04:00 +6°C° 0 mm 7 m/s 763 mmHg 76%
    05:00 +6°C° 1 mm 7 m/s 763 mmHg 78%
    06:00 +6°C° 1 mm 8 m/s 763 mmHg 81%
    07:00 +6°C° 1 mm 8 m/s 763 mmHg 83%
    08:00 +7°C° 0,9 mm 8 m/s 763 mmHg 84%
    09:00 +10°C° 0,9 mm 8 m/s 764 mmHg 84%
    10:00 +11°C° 0 mm 8 m/s 764 mmHg 84%
    11:00 +11°C° 0,5 mm 8 m/s 764 mmHg 83%
    12:00 +12°C° 0,5 mm 8 m/s 764 mmHg 82%
    13:00 +12°C° 0,5 mm 8 m/s 764 mmHg 81%
    14:00 +12°C° 0,7 mm 8 m/s 764 mmHg 80%
    15:00 +12°C° 0,7 mm 8 m/s 764 mmHg 79%
    16:00 +12°C° 0,7 mm 7 m/s 764 mmHg 78%
    17:00 +12°C° 0,7 mm 7 m/s 764 mmHg 81%
    18:00 +11°C° 0,7 mm 7 m/s 765 mmHg 84%
    19:00 +10°C° 0,7 mm 7 m/s 765 mmHg 86%
    20:00 +10°C° 0,7 mm 6 m/s 766 mmHg 89%
    21:00 +10°C° 0,7 mm 6 m/s 766 mmHg 91%
    22:00 +10°C° 0,7 mm 6 m/s 767 mmHg 93%
    23:00 +10°C° 0,6 mm 6 m/s 767 mmHg 94%

    Amanhã, 20 Junho, Quarta-feira

    Tempo Temperatura Precipitação Vento Pressão Humidade
    00:00 +10°C° 0,6 mm 6 m/s 767 mmHg 95%
    01:00 +10°C° 0,6 mm 5 m/s 767 mmHg 95%
    02:00 +10°C° 0,3 mm 5 m/s 767 mmHg 95%
    03:00 +10°C° 0,3 mm 5 m/s 767 mmHg 95%
    04:00 +10°C° 0,3 mm 5 m/s 768 mmHg 95%
    05:00 +10°C° 0,2 mm 5 m/s 768 mmHg 95%
    06:00 +9°C° 0,2 mm 5 m/s 768 mmHg 95%
    07:00 +9°C° 0,2 mm 5 m/s 769 mmHg 95%
    08:00 +12°C° 0 mm 5 m/s 769 mmHg 89%
    09:00 +13°C° 0 mm 5 m/s 769 mmHg 82%
    10:00 +15°C° 0 mm 5 m/s 769 mmHg 75%
    11:00 +15°C° 0 mm 5 m/s 769 mmHg 69%
    12:00 +17°C° 0 mm 4 m/s 768 mmHg 63%
    13:00 +18°C° 0 mm 4 m/s 768 mmHg 56%
    14:00 +17°C° 0 mm 4 m/s 768 mmHg 60%
    15:00 +15°C° 0 mm 4 m/s 768 mmHg 65%
    16:00 +15°C° 0 mm 4 m/s 768 mmHg 69%
    17:00 +13°C° 0,1 mm 4 m/s 768 mmHg 74%
    18:00 +12°C° 0,1 mm 4 m/s 769 mmHg 80%
    19:00 +11°C° 0,1 mm 4 m/s 769 mmHg 85%
    20:00 +10°C° 0,1 mm 4 m/s 769 mmHg 86%
    21:00 +10°C° 0,1 mm 4 m/s 769 mmHg 86%
    22:00 +10°C° 0,1 mm 4 m/s 770 mmHg 87%
    23:00 +8°C° 0,1 mm 4 m/s 769 mmHg 87%

    Depois de amanhã, 21 Junho, Quinta-feira

    Tempo Temperatura Precipitação Vento Pressão Humidade
    00:00 +8°C° 0,1 mm 4 m/s 769 mmHg 87%
    01:00 +8°C° 0,1 mm 4 m/s 769 mmHg 88%
    02:00 +9°C° 0,1 mm 3 m/s 769 mmHg 88%
    03:00 +9°C° 0,1 mm 3 m/s 769 mmHg 87%
    04:00 +9°C° 0,1 mm 3 m/s 769 mmHg 87%
    05:00 +9°C° 0,1 mm 3 m/s 769 mmHg 87%
    06:00 +9°C° 0,1 mm 3 m/s 769 mmHg 87%
    07:00 +9°C° 0,1 mm 3 m/s 769 mmHg 86%
    08:00 +10°C° 0,1 mm 3 m/s 770 mmHg 81%
    09:00 +12°C° 0,1 mm 3 m/s 770 mmHg 76%
    10:00 +13°C° 0,1 mm 3 m/s 770 mmHg 71%
    11:00 +16°C° 0,1 mm 3 m/s 769 mmHg 68%
    12:00 +17°C° 0,1 mm 3 m/s 769 mmHg 66%
    13:00 +18°C° 0,1 mm 3 m/s 768 mmHg 64%
    14:00 +18°C° 0,1 mm 3 m/s 768 mmHg 68%
    15:00 +17°C° 0,1 mm 3 m/s 768 mmHg 73%
    16:00 +17°C° 0,1 mm 2 m/s 768 mmHg 77%
    17:00 +15°C° 0,1 mm 2 m/s 769 mmHg 83%
    18:00 +14°C° 0,1 mm 2 m/s 769 mmHg 89%
    19:00 +12°C° 0,1 mm 2 m/s 770 mmHg 95%
    20:00 +12°C° 0,1 mm 1 m/s 770 mmHg 96%
    21:00 +12°C° 0,1 mm 1 m/s 770 mmHg 96%
    22:00 +11°C° 0,1 mm 1 m/s 770 mmHg 97%
    23:00 +11°C° 0 mm 1 m/s 770 mmHg 97%

    22 Junho, Sexta-feira

    Tempo Temperatura Precipitação Vento Pressão Humidade
    00:00 +11°C° 0 mm 1 m/s 770 mmHg 97%
    01:00 +11°C° 0 mm 1 m/s 770 mmHg 98%
    02:00 +10°C° 0 mm 1 m/s 770 mmHg 98%
    03:00 +10°C° 0 mm 1 m/s 770 mmHg 98%
    04:00 +9°C° 0 mm 2 m/s 770 mmHg 98%
    05:00 +9°C° 0 mm 2 m/s 770 mmHg 98%
    06:00 +9°C° 0 mm 2 m/s 770 mmHg 98%
    07:00 +8°C° 0 mm 2 m/s 770 mmHg 98%
    08:00 +12°C° 0,1 mm 2 m/s 771 mmHg 91%
    09:00 +14°C° 0,1 mm 2 m/s 771 mmHg 84%
    10:00 +16°C° 0,1 mm 2 m/s 771 mmHg 77%
    11:00 +18°C° 0 mm 1 m/s 770 mmHg 70%
    12:00 +20°C° 0 mm 1 m/s 769 mmHg 63%
    13:00 +21°C° 0 mm 1 m/s 769 mmHg 56%
    14:00 +20°C° 0 mm 1 m/s 769 mmHg 60%
    15:00 +19°C° 0 mm 1 m/s 769 mmHg 64%
    16:00 +18°C° 0 mm 1 m/s 769 mmHg 68%
    17:00 +16°C° 0 mm 2 m/s 769 mmHg 77%
    18:00 +14°C° 0 mm 2 m/s 769 mmHg 85%
    19:00 +12°C° 0 mm 2 m/s 769 mmHg 94%
    20:00 +12°C° 0 mm 2 m/s 770 mmHg 95%
    21:00 +12°C° 0 mm 2 m/s 770 mmHg 96%
    22:00 +10°C° 0 mm 2 m/s 770 mmHg 97%
    23:00 +10°C° 0 mm 2 m/s 770 mmHg 97%

    23 Junho, Sábado

    Tempo Temperatura Precipitação Vento Pressão Humidade
    00:00 +10°C° 0 mm 2 m/s 769 mmHg 97%
    01:00 +9°C° 0 mm 2 m/s 769 mmHg 97%
    02:00 +9°C° 0 mm 2 m/s 769 mmHg 97%
    03:00 +9°C° 0 mm 2 m/s 769 mmHg 97%
    04:00 +8°C° 0 mm 2 m/s 769 mmHg 97%
    05:00 +8°C° 0 mm 2 m/s 769 mmHg 97%
    06:00 +8°C° 0 mm 2 m/s 769 mmHg 97%
    07:00 +8°C° 0 mm 2 m/s 769 mmHg 97%
    08:00 +10°C° 0 mm 2 m/s 769 mmHg 87%
    09:00 +13°C° 0 mm 2 m/s 769 mmHg 78%
    10:00 +15°C° 0 mm 2 m/s 769 mmHg 69%
    11:00 +17°C° 0 mm 2 m/s 768 mmHg 62%
    12:00 +18°C° 0 mm 2 m/s 768 mmHg 56%
    13:00 +20°C° 0 mm 2 m/s 767 mmHg 49%
    14:00 +19°C° 0 mm 2 m/s 767 mmHg 52%
    15:00 +19°C° 0 mm 2 m/s 766 mmHg 55%
    16:00 +18°C° 0 mm 2 m/s 766 mmHg 58%
    17:00 +16°C° 0 mm 2 m/s 767 mmHg 62%
    18:00 +14°C° 0 mm 3 m/s 767 mmHg 65%
    19:00 +12°C° 0 mm 3 m/s 767 mmHg 69%
    20:00 +11°C° 0 mm 3 m/s 768 mmHg 69%
    21:00 +10°C° 0 mm 3 m/s 768 mmHg 69%
    22:00 +10°C° 0 mm 4 m/s 768 mmHg 69%
    23:00 +8°C° 0 mm 4 m/s 768 mmHg 69%

    24 Junho, Domingo

    Tempo Temperatura Precipitação Vento Pressão Humidade
    00:00 +8°C° 0 mm 4 m/s 767 mmHg 69%
    01:00 +7°C° 0 mm 4 m/s 767 mmHg 69%
    02:00 +7°C° 0 mm 4 m/s 767 mmHg 69%
    03:00 +6°C° 0 mm 4 m/s 767 mmHg 69%
    04:00 +6°C° 0 mm 4 m/s 767 mmHg 69%
    05:00 +6°C° 0 mm 4 m/s 767 mmHg 68%
    06:00 +6°C° 0 mm 4 m/s 768 mmHg 68%
    07:00 +6°C° 0 mm 4 m/s 768 mmHg 68%
    08:00 +8°C° 0 mm 4 m/s 768 mmHg 62%
    09:00 +11°C° 0 mm 4 m/s 768 mmHg 56%
    10:00 +13°C° 0 mm 4 m/s 768 mmHg 50%
    11:00 +14°C° 0 mm 4 m/s 767 mmHg 46%
    12:00 +17°C° 0 mm 4 m/s 767 mmHg 43%
    13:00 +18°C° 0 mm 3 m/s 766 mmHg 39%
    14:00 +18°C° 0 mm 3 m/s 766 mmHg 43%
    15:00 +17°C° 0 mm 2 m/s 766 mmHg 48%
    16:00 +16°C° 0 mm 2 m/s 766 mmHg 52%
    17:00 +14°C° 0 mm 2 m/s 767 mmHg 59%
    18:00 +12°C° 0 mm 1 m/s 767 mmHg 65%
    19:00 +10°C° 0 mm 1 m/s 768 mmHg 71%
    20:00 +10°C° 0 mm 1 m/s 768 mmHg 72%
    21:00 +9°C° 0 mm 2 m/s 768 mmHg 73%
    22:00 +9°C° 0 mm 2 m/s 769 mmHg 74%
    23:00 +8°C° 0 mm 2 m/s 769 mmHg 75%
    Mostrar mais